EW0976 Weather Reports


time (UTC)temp
C
wind
direction
speed
KPH
gust
KPH
rain 1hr
cm
rain 24hr
cm
rain mn
cm
humidity
%
barometer
mb
20260507180613 15 24 3.2 9.7 0.00 0.00 0.00 42 986.7
20260507180114 15 317 3.2 9.7 0.00 0.00 0.00 45 986.7
20260507175613 14 2 4.8 11.3 0.00 0.00 0.00 45 986.7
20260507174613 15 2 4.8 14.5 0.00 0.00 0.00 41 986.9
20260507174113 14 23 4.8 9.7 0.00 0.00 0.00 43 987.0
20260507173113 14 343 3.2 12.9 0.00 0.00 0.00 46 986.9
20260507172613 14 7 4.8 11.3 0.00 0.00 0.00 43 987.1
20260507171613 14 344 4.8 9.7 0.00 0.00 0.00 41 987.3
20260507171114 14 294 4.8 11.3 0.00 0.00 0.00 44 987.3
20260507170613 13 241 3.2 8.0 0.00 0.00 0.00 47 987.3
20260507170113 13 352 4.8 9.7 0.00 0.00 0.00 43 987.5
20260507165613 13 5 4.8 9.7 0.00 0.00 0.00 45 987.4
20260507165113 13 17 3.2 9.7 0.00 0.00 0.00 46 987.5
20260507164613 13 4 3.2 9.7 0.00 0.00 0.00 49 987.4
20260507164113 13 7 4.8 9.7 0.00 0.00 0.00 45 987.5
20260507163614 13 18 1.6 8.0 0.00 0.00 0.00 46 987.5
20260507163113 13 339 3.2 9.7 0.00 0.00 0.00 44 987.6
20260507162613 13 352 3.2 8.0 0.00 0.00 0.00 44 987.5
20260507162113 13 215 1.6 9.7 0.00 0.00 0.00 49 987.5
20260507161613 13 269 3.2 9.7 0.00 0.00 0.00 46 987.4
20260507161113 13 15 3.2 8.0 0.00 0.00 0.00 45 987.5
20260507160613 13 245 3.2 11.3 0.00 0.00 0.00 46 987.5
20260507160113 13 333 3.2 4.8 0.00 0.00 0.00 46 987.6
20260507155613 13 5 4.8 9.7 0.00 0.00 0.00 47 987.7
20260507155114 13 301 4.8 9.7 0.00 0.00 0.00 45 987.6
20260507154613 13 191 3.2 9.7 0.00 0.00 0.00 50 987.4
20260507153613 13 338 4.8 12.9 0.00 0.00 0.00 49 987.6
20260507153113 13 25 3.2 8.0 0.00 0.00 0.00 48 987.5
20260507152613 12 289 3.2 11.3 0.00 0.00 0.00 49 987.5
20260507152113 13 276 4.8 12.9 0.00 0.00 0.00 49 987.5
20260507151613 13 238 1.6 12.9 0.00 0.00 0.00 52 987.6
20260507151113 12 247 3.2 9.7 0.00 0.00 0.00 49 987.4
20260507150613 12 50 3.2 8.0 0.00 0.00 0.00 48 987.5
20260507150113 12 271 3.2 9.7 0.00 0.00 0.00 49 987.4
20260507145613 12 335 1.6 8.0 0.00 0.00 0.00 52 987.3
20260507145113 12 344 1.6 8.0 0.00 0.00 0.00 52 987.2
20260507144613 12 46 1.6 4.8 0.00 0.00 0.00 52 987.1
20260507143613 11 8 3.2 11.3 0.00 0.00 0.00 50 987.2
20260507143113 11 242 3.2 9.7 0.00 0.00 0.00 51 987.0
20260507142113 11 224 3.2 9.7 0.00 0.00 0.00 49 987.7
20260507141613 10 318 3.2 12.9 0.00 0.00 0.00 50 987.7
20260507141113 10 319 3.2 9.7 0.00 0.00 0.00 54 987.8
20260507140112 10 27 1.6 4.8 0.00 0.00 0.00 54 987.9
20260507135613 10 358 1.6 3.2 0.00 0.00 0.00 52 987.9
20260507135113 10 5 3.2 8.0 0.00 0.00 0.00 53 987.9
20260507134613 10 34 4.8 8.0 0.00 0.00 0.00 50 987.9
20260507134113 10 311 1.6 8.0 0.00 0.00 0.00 52 987.9
20260507133113 10 259 3.2 9.7 0.00 0.00 0.00 55 987.9
20260507132113 9 51 3.2 4.8 0.00 0.00 0.00 56 987.9
20260507131613 8 214 1.6 8.0 0.00 0.00 0.00 61 987.9
20260507130612 8 2 0.0 3.2 0.00 0.00 0.00 68 987.9
20260507130113 8 255 0.0 1.6 0.00 0.00 0.00 76 987.9
20260507125613 7 262 0.0 1.6 0.00 0.00 0.00 78 987.9
20260507125113 7 256 0.0 3.2 0.00 0.00 0.00 78 987.9
20260507124613 7 215 0.0 3.2 0.00 0.00 0.00 78 987.9
20260507124113 7 247 1.6 3.2 0.00 0.00 0.00 78 987.8
20260507123113 6 210 1.6 3.2 0.00 0.00 0.00 82 988.0
20260507122612 5 289 3.2 4.8 0.00 0.00 0.00 88 988.1
20260507122112 5 222 0.0 3.2 0.00 0.00 0.00 95 988.0
20260507121613 4 227 0.0 3.2 0.00 0.00 0.00 96 988.0
20260507121112 3 222 0.0 3.2 0.00 0.00 0.00 97 988.0
20260507120612 3 239 0.0 0.0 0.00 0.00 0.00 97 988.0
20260507120113 3 219 0.0 1.6 0.00 0.00 0.00 97 988.0
20260507115613 3 214 0.0 1.6 0.00 0.00 0.00 97 988.1
20260507115113 3 238 0.0 3.2 0.00 0.00 0.00 97 988.1
20260507114613 3 262 0.0 1.6 0.00 0.00 0.00 97 988.1
20260507114113 2 268 0.0 0.0 0.00 0.00 0.00 96 988.1
20260507113613 2 269 0.0 1.6 0.00 0.00 0.00 96 988.1
20260507113113 2 253 0.0 0.0 0.00 0.00 0.00 96 988.0
20260507112612 2 291 0.0 0.0 0.00 0.00 0.00 96 988.1
20260507112112 2 269 0.0 0.0 0.00 0.00 0.00 96 988.2
20260507111112 2 269 0.0 0.0 0.00 0.00 0.00 96 988.1
20260507110113 2 267 0.0 0.0 0.00 0.00 0.00 95 988.0
20260507105613 2 266 0.0 0.0 0.00 0.00 0.00 95 988.0
20260507105113 2 262 0.0 0.0 0.00 0.00 0.00 95 987.9
20260507104612 2 262 0.0 0.0 0.00 0.00 0.00 94 987.9
20260507104113 2 239 0.0 0.0 0.00 0.00 0.00 94 987.8
20260507103612 2 257 0.0 0.0 0.00 0.00 0.00 94 987.7
20260507103112 2 257 0.0 1.6 0.00 0.00 0.00 94 987.7
20260507102612 2 274 0.0 0.0 0.00 0.00 0.00 93 987.7
20260507102113 3 276 0.0 1.6 0.00 0.00 0.00 93 987.6
20260507101613 3 286 0.0 1.6 0.00 0.00 0.00 93 987.7
20260507101112 3 198 0.0 0.0 0.00 0.00 0.00 93 987.7
20260507100613 3 214 0.0 0.0 0.00 0.00 0.00 92 987.8
20260507100113 3 329 0.0 0.0 0.00 0.00 0.00 92 987.7
20260507095612 3 329 0.0 0.0 0.00 0.00 0.00 92 987.6
20260507095112 3 336 0.0 3.2 0.00 0.00 0.00 92 987.5
20260507094612 3 195 0.0 0.0 0.00 0.00 0.00 92 987.7
20260507094112 3 157 0.0 3.2 0.00 0.00 0.00 92 987.6
20260507093612 3 271 0.0 0.0 0.00 0.00 0.00 93 987.6
20260507093112 3 271 0.0 0.0 0.00 0.00 0.00 94 987.6
20260507092613 3 271 0.0 0.0 0.00 0.00 0.00 94 987.6
20260507092113 3 271 0.0 0.0 0.00 0.00 0.00 94 987.6
20260507091613 3 271 0.0 0.0 0.00 0.00 0.00 95 987.6
20260507091113 3 271 0.0 0.0 0.00 0.00 0.00 95 987.5
20260507090613 3 297 0.0 1.6 0.00 0.00 0.00 95 987.5
20260507090113 3 272 0.0 0.0 0.00 0.00 0.00 95 987.5
20260507085112 4 265 0.0 0.0 0.00 0.00 0.00 95 987.4
20260507083612 4 217 0.0 0.0 0.00 0.00 0.00 96 987.2
20260507082113 3 30 0.0 1.6 0.00 0.00 0.00 98 987.1
20260507081613 3 244 0.0 1.6 0.00 0.00 0.00 98 987.1
20260507081112 3 359 0.0 0.0 0.00 0.00 0.00 98 987.1
20260507075612 3 359 0.0 3.2 0.00 0.00 0.00 98 987.1
20260507075113 3 204 0.0 0.0 0.00 0.00 0.00 98 987.2
20260507074613 3 204 0.0 1.6 0.00 0.00 0.00 98 987.1
20260507073113 3 264 0.0 0.0 0.00 0.00 0.00 98 987.1
20260507072613 4 264 0.0 0.0 0.00 0.00 0.00 98 987.1
20260507072113 4 264 0.0 0.0 0.00 0.00 0.00 98 987.1
20260507071612 4 264 0.0 0.0 0.00 0.00 0.00 98 987.1
20260507071112 3 264 0.0 0.0 0.00 0.00 0.00 98 987.0
20260507070612 3 264 0.0 0.0 0.00 0.00 0.00 97 987.1
20260507070112 3 264 0.0 0.0 0.00 0.00 0.00 97 987.2
20260507065612 4 264 0.0 0.0 0.00 0.00 0.00 97 987.2
20260507064612 4 243 0.0 1.6 0.00 0.00 0.00 97 987.2
20260507064112 4 258 0.0 1.6 0.00 0.00 0.00 97 987.3
20260507063612 4 271 0.0 0.0 0.00 0.00 0.00 97 987.3
20260507063112 4 271 0.0 0.0 0.00 0.00 0.00 97 987.3
20260507062112 5 270 0.0 0.0 0.00 0.00 0.00 97 987.4
20260507061612 5 273 0.0 0.0 0.00 0.00 0.00 97 987.3
20260507060612 5 265 0.0 1.6 0.00 0.00 0.00 97 987.3
20260507060112 5 270 0.0 0.0 0.00 0.00 0.00 97 987.3
20260507055612 5 270 0.0 0.0 0.00 0.00 0.00 97 987.4
20260507055112 5 270 0.0 0.0 0.00 0.00 0.00 97 987.4
20260507054612 5 273 0.0 0.0 0.00 0.00 0.00 97 987.4
20260507054112 5 250 0.0 0.0 0.00 0.00 0.00 97 987.4
20260507053612 5 216 0.0 0.0 0.00 0.00 0.00 97 987.4
20260507053112 5 274 0.0 0.0 0.00 0.00 0.00 97 987.4
20260507052112 5 270 0.0 0.0 0.00 0.00 0.00 96 987.4
20260507051112 5 306 0.0 0.0 0.00 0.00 0.00 96 987.3
20260507050612 5 306 0.0 0.0 0.00 0.00 0.00 96 987.3
20260507050112 5 306 0.0 0.0 0.00 0.00 0.00 96 987.4
20260507045612 5 306 0.0 0.0 0.00 0.00 0.00 96 987.4
20260507045112 5 306 0.0 0.0 0.00 0.00 0.00 96 987.5
20260507044612 5 306 0.0 0.0 0.00 0.00 0.00 96 987.6
20260507044112 5 306 0.0 1.6 0.00 0.00 0.00 96 987.5
20260507043612 6 256 0.0 1.6 0.00 0.00 0.00 96 987.5
20260507043112 6 273 0.0 0.0 0.00 0.00 0.00 96 987.5
20260507042612 6 276 0.0 0.0 0.00 0.00 0.00 96 987.4
20260507042112 6 282 0.0 0.0 0.00 0.00 0.00 96 987.4
20260507041613 6 280 0.0 1.6 0.00 0.00 0.00 95 987.4
20260507041112 6 296 0.0 0.0 0.00 0.00 0.00 95 987.4
20260507040612 6 296 0.0 0.0 0.00 0.00 0.00 95 987.4
20260507040112 6 223 0.0 0.0 0.00 0.00 0.00 95 987.4
20260507035112 6 268 0.0 0.0 0.00 0.00 0.00 94 987.4
20260507034613 6 268 0.0 0.0 0.00 0.00 0.00 94 987.4
20260507034112 6 268 0.0 0.0 0.00 0.00 0.00 94 987.4
20260507033612 6 264 0.0 0.0 0.00 0.00 0.00 94 987.4
20260507033112 6 264 0.0 0.0 0.00 0.00 0.00 94 987.4
20260507032112 7 264 0.0 0.0 0.00 0.00 0.00 94 987.3
20260507031612 7 257 0.0 0.0 0.00 0.00 0.00 93 987.3
20260507031112 7 257 0.0 0.0 0.00 0.00 0.00 92 987.3
20260507030612 7 253 0.0 1.6 0.00 0.00 0.00 92 987.4
20260507030112 7 315 0.0 0.0 0.00 0.00 0.00 92 987.4
20260507025112 7 315 0.0 0.0 0.00 0.00 0.00 91 987.4
20260507024111 8 271 0.0 0.0 0.00 0.00 0.00 90 987.3
20260507023611 8 283 0.0 1.6 0.00 0.00 0.00 90 987.3
20260507022611 8 277 0.0 0.0 0.00 0.00 0.00 89 987.3
20260507021611 8 231 0.0 0.0 0.00 0.00 0.00 85 987.3
20260507021112 8 286 0.0 0.0 0.00 0.00 0.00 82 987.3
20260507020612 8 286 0.0 0.0 0.00 0.00 0.00 83 987.1
20260507020112 8 286 0.0 0.0 0.00 0.00 0.00 84 987.1
20260507015112 8 286 0.0 0.0 0.00 0.00 0.00 84 987.0
20260507014111 9 292 0.0 0.0 0.00 0.00 0.00 84 987.0
20260507013611 9 281 0.0 1.6 0.00 0.00 0.00 83 986.8
20260507013112 10 271 0.0 1.6 0.00 0.00 0.00 80 986.8
20260507012612 10 272 0.0 0.0 0.00 0.00 0.00 77 986.8
20260507012111 10 274 0.0 0.0 0.00 0.00 0.00 76 986.8
20260507011611 10 274 0.0 0.0 0.00 0.00 0.00 74 986.7
20260507011112 10 255 0.0 1.6 0.00 0.00 0.00 73 986.6
20260507010612 10 217 0.0 1.6 0.00 0.00 0.00 72 986.6
20260507010112 11 314 0.0 1.6 0.00 0.00 0.00 72 986.7
20260507004612 11 264 0.0 0.0 0.00 0.00 0.00 71 986.6
20260507004112 11 258 0.0 0.0 0.00 0.00 0.00 70 986.5
20260507003612 12 258 0.0 1.6 0.00 0.00 0.00 69 986.5
20260507003112 12 223 0.0 1.6 0.00 0.00 0.00 68 986.6
20260507002112 12 187 0.0 4.8 0.00 0.00 0.00 66 986.4
20260507001612 12 199 0.0 0.0 0.00 0.00 0.00 64 986.3
20260507001111 13 206 0.0 1.6 0.00 0.00 0.00 65 986.1
20260507000111 13 232 0.0 4.8 0.00 0.00 0.00 63 986.0
20260506235611 13 270 0.0 8.0 0.00 0.00 0.00 64 985.9
20260506235111 13 196 1.6 4.8 0.00 0.00 0.00 64 985.9
20260506234112 13 229 0.0 8.0 0.00 0.00 0.00 67 985.9
20260506233612 13 278 1.6 4.8 0.00 0.00 0.00 61 985.9
20260506233112 13 249 1.6 3.2 0.00 0.00 0.00 61 985.9
20260506232112 13 253 0.0 1.6 0.00 0.00 0.00 60 985.9
20260506231612 13 289 0.0 3.2 0.00 0.00 0.00 61 985.8
20260506230611 14 346 0.0 3.2 0.00 0.00 0.00 59 985.6
20260506225611 15 51 3.2 8.0 0.00 0.00 0.00 57 985.7
20260506225111 15 135 1.6 4.8 0.00 0.00 0.00 55 985.7
20260506224611 15 306 1.6 4.8 0.00 0.00 0.00 55 985.7
20260506223611 15 19 3.2 4.8 0.00 0.00 0.00 54 985.6
20260506223112 15 237 1.6 8.0 0.00 0.00 0.00 57 985.5
20260506222611 14 334 1.6 4.8 0.00 0.00 0.00 58 985.5
20260506221611 14 259 1.6 4.8 0.00 0.00 0.00 56 985.9
20260506221111 14 222 1.6 4.8 0.00 0.00 0.00 56 985.9
20260506220611 14 257 1.6 4.8 0.00 0.00 0.00 57 985.9
20260506215611 14 216 0.0 3.2 0.00 0.00 0.00 58 986.0
20260506215111 14 274 1.6 4.8 0.00 0.00 0.00 60 986.1
20260506214611 14 266 3.2 8.0 0.00 0.00 0.00 58 986.1
20260506214111 15 337 1.6 4.8 0.00 0.00 0.00 56 986.0
20260506213611 15 172 1.6 4.8 0.00 0.00 0.00 53 985.9
20260506213112 15 323 3.2 8.0 0.00 0.00 0.00 55 985.6
20260506212611 15 226 1.6 4.8 0.00 0.00 0.00 56 985.5
20260506212111 15 123 3.2 8.0 0.00 0.00 0.00 54 985.5
20260506211611 15 324 0.0 8.0 0.00 0.00 0.00 57 985.6
20260506211111 14 280 0.0 3.2 0.00 0.00 0.00 58 985.7
20260506210612 14 230 3.2 8.0 0.00 0.00 0.00 53 985.6
20260506210112 15 29 3.2 8.0 0.00 0.00 0.00 53 985.5
20260506205611 15 11 3.2 8.0 0.00 0.00 0.00 53 985.4
20260506205111 15 262 1.6 4.8 0.00 0.00 0.00 54 985.4
20260506204612 14 44 1.6 4.8 0.00 0.00 0.00 54 985.3
20260506203612 14 166 1.6 4.8 0.00 0.00 0.00 56 985.5
20260506203111 14 41 0.0 3.2 0.00 0.00 0.00 57 985.5
20260506202111 14 205 1.6 3.2 0.00 0.00 0.00 57 985.6
20260506200612 15 278 0.0 3.2 0.00 0.00 0.00 57 985.6
20260506200111 14 199 1.6 9.7 0.00 0.00 0.00 54 985.5
20260506195611 14 337 0.0 4.8 0.00 0.00 0.00 55 985.6
20260506195111 14 262 1.6 4.8 0.00 0.00 0.00 54 985.7
20260506194612 14 270 1.6 8.0 0.00 0.00 0.00 54 985.8
20260506194112 14 342 3.2 8.0 0.00 0.00 0.00 53 985.8
20260506193112 14 21 1.6 8.0 0.00 0.00 0.00 57 985.6
20260506192111 15 10 0.0 3.2 0.00 0.00 0.00 55 985.5
20260506191611 15 24 3.2 4.8 0.00 0.00 0.00 54 985.4
20260506190611 15 247 3.2 8.0 0.00 0.00 0.00 54 985.0
20260506190111 15 24 1.6 4.8 0.00 0.00 0.00 57 985.1
20260506185111 14 33 3.2 4.8 0.00 0.00 0.00 56 985.4
20260506184611 14 145 3.2 4.8 0.00 0.00 0.00 56 985.5
20260506184111 13 7 1.6 4.8 0.00 0.00 0.00 57 985.4
20260506183611 13 7 1.6 8.0 0.00 0.00 0.00 54 985.4
20260506183111 13 0 3.2 4.8 0.00 0.00 0.00 54 985.5
20260506182612 14 8 3.2 9.7 0.00 0.00 0.00 53 985.6
20260506181611 14 33 1.6 8.0 0.00 0.00 0.00 59 985.3
20260506181112 14 301 1.6 3.2 0.00 0.00 0.00 57 985.4